Location: Arborea
(39.7744°N, 8.5819°E)
Time: 01:04:50
(UTC+00:00)

Cosmos 2173 Rocket - Pass Details

Date: 24 October 2021
Orbit: 945 x 1000 km, 83.0° (Epoch: 06 December)

Event Time Altitude Azimuth Distance (km) Brightness Sun altitude
Rises 18:28:30 0° 174° (S) 3,624 6.9 -22.7°
Reaches altitude 10° 18:31:00 10° 171° (S) 2,690 6.2 -23.2°
Maximum altitude 18:37:02 61° 92° (E) 1,098 3.9 -24.4°
Drops below altitude 10° 18:43:13 10° 14° (NNE) 2,745 6.3 -25.5°
Sets 18:45:47 0° 11° (NNE) 3,704 7.0 -26.0°
